Regional Weather Roundup
Issued by NWS

Home | Current Version | Previous Version | Graphics & Text | Print | Product List | Glossary On
Versions: 1 2 3 4 5 6 7 8 9 10 11 12 13 14 15 16 17 18 19 20 21 22 23 24 25 26 27 28 29 30 31 32 33 34 35 36 37 38 39 40 41 42 43 44 45 46 47 48 49 50
000
ASUS43 KIND 301859
RWRIN

WEATHER ROUNDUP FOR INDIANA
NATIONAL WEATHER SERVICE INDIANAPOLIS IN
300 PM EDT THU OCT 30 2014

NOTE: "FAIR" INDICATES FEW OR NO CLOUDS BELOW 12,000 FEET WITH NO
SIGNIFICANT WEATHER AND/OR OBSTRUCTIONS TO VISIBILITY.

* - STATION DOES NOT REPORT WEATHER SUCH AS PRECIPITATION OR FOG.

+ - STATION NOT QUALITY CONTROLLED BY THE NATIONAL WEATHER SERVICE.
    USE DATA WITH CAUTION...ESPECIALLY DEWPOINT AND RELATIVE
    HUMIDITY OBSERVATIONS.

INZ001>003-010>013-019-020-302000-
NORTHWEST INDIANA

CITY           SKY/WX    TMP DP  RH WIND       PRES   REMARKS
GARY /AIRPORT/ PTSUNNY   54  34  47 W9        30.09F
KNOX *+        PTSUNNY   51  32  47 SW10      30.09F
MONTICELLO +   MOSUNNY   51  35  53 W6        30.09F
RENSSELAER +   MOSUNNY   52  34  50 S7        30.09F
VALPARAISO     NOT AVBL

$$

LMZ046-743>745-302000-
SOUTHERN LAKE MICHIGAN

STATION/POSITION TIME  TEMP WIND        PRES
                       AIR  DIR/SP/G
                 (UTC) (F)  (DEG/KT/KT) (MB)
MICHIGAN CITY    1800   48  200/ 10/ 14   N/A

$$

INZ004-005-014>016-021>024-302000-
NORTH CENTRAL INDIANA

CITY           SKY/WX    TMP DP  RH WIND       PRES   REMARKS
ELKHART        CLOUDY    50  32  50 SW7       30.08F
GOSHEN         CLOUDY    50  35  56 S9        30.08F
SOUTH BEND     PTSUNNY   51  32  48 W8        30.09F

$$

INZ006>009-017-018-025>027-302000-
NORTHEAST INDIANA

CITY           SKY/WX    TMP DP  RH WIND       PRES   REMARKS
ANGOLA *+      CLOUDY    48  36  61 SW5       30.08F
AUBURN +       CLOUDY    48  32  53 CALM      30.10F
FORT WAYNE     CLOUDY    49  34  56 W3        30.10F

$$

INZ028-029-035-036-043>045-051>053-302000-
WEST CENTRAL INDIANA

CITY           SKY/WX    TMP DP  RH WIND       PRES   REMARKS
GREENCASTLE +  MOSUNNY   50  34  53 CALM      30.09F
LAFAYETTE      MOSUNNY   51  33  50 SW7       30.09F
TERRE HAUTE    SUNNY     53  35  50 S3        30.09F

$$

INZ030>032-037>040-046>048-054>057-064-065-302000-
CENTRAL INDIANA

CITY           SKY/WX    TMP DP  RH WIND       PRES   REMARKS
ANDERSON       MOSUNNY   50  30  46 CALM      30.10F
CP ATTERBURY + MOSUNNY   52  34  50 SE5       30.10F
COLUMBUS       SUNNY     54  36  50 CALM      30.11F
INDIANAPOLIS   PTSUNNY   52  34  50 VRB3      30.09F
-EAGLE CREEK   PTSUNNY   52  33  48 S7        30.09F
KOKOMO *+      PTSUNNY   52  34  50 CALM      30.09F
MT COMFORT *+  MOSUNNY   52  23  32 SW5       30.09F
SHELBYVILLE    MOSUNNY   53  34  48 SW5       30.09F
ZIONSVILLE +   PTSUNNY   52  31  44 W3        30.09F

$$

INZ033-034-041-042-049-050-058-059-302000-
EAST CENTRAL INDIANA

CITY           SKY/WX    TMP DP  RH WIND       PRES   REMARKS
MUNCIE         PTSUNNY   50  33  52 N3        30.10F

$$

INZ060-061-067>069-081>083-085>088-302000-
SOUTHWEST INDIANA

CITY           SKY/WX    TMP DP  RH WIND       PRES   REMARKS
EVANSVILLE     SUNNY     56  38  50 S5        30.10F
HUNTINGBURG *+ MOSUNNY   55  37  50 W5        30.10F

$$

INZ062-063-066-070>080-084-089>092-302000-
SOUTH CENTRAL AND SOUTHEAST INDIANA

CITY           SKY/WX    TMP DP  RH WIND       PRES   REMARKS
BLOOMINGTON    PTSUNNY   53  34  48 VRB3      30.09F

$$




USA.gov is the U.S. government's official web portal to all federal, state and local government web resources and services.